FW6744 Weather Reports


Display with metric or nautical units.
time (UTC)temp
F
wind
direction
speed
MPH
gust
MPH
rain 1hr
in
rain 24hr
in
rain mn
in
humidity
%
barometer
mb
20260506212346 73 78 0.0 4.0 0.00 0.10 0.10 75 1005.6
20260506211840 73 198 0.0 3.0 0.00 0.10 0.10 75 1005.7
20260506211334 73 20 1.0 3.0 0.00 0.10 0.10 75 1005.6
20260506210832 73 91 1.0 4.0 0.00 0.10 0.10 76 1005.5
20260506210331 73 333 1.0 4.0 0.00 0.10 0.10 77 1005.5
20260506205831 73 292 1.0 6.0 0.00 0.10 0.10 76 1005.5
20260506205331 73 39 1.0 6.0 0.00 0.10 0.10 77 1005.6
20260506204831 73 156 0.0 2.0 0.00 0.10 0.10 79 1005.6
20260506204817 72 221 0.0 3.0 0.00 0.10 0.10 80 1005.8
20260506203830 71 34 0.0 3.0 0.00 0.10 0.10 81 1005.6
20260506203550 70 114 0.0 2.0 0.00 0.10 0.10 81 1005.3
20260506202825 70 67 0.0 2.0 0.00 0.10 0.10 81 1005.5
20260506202325 70 195 0.0 2.0 0.00 0.10 0.10 82 1005.7
20260506201826 70 197 0.0 4.0 0.00 0.10 0.10 81 1005.7
20260506201326 70 185 0.0 4.0 0.00 0.10 0.10 81 1005.8
20260506200826 69 188 0.0 3.0 0.00 0.10 0.10 82 1005.8
20260506200325 69 220 0.0 3.0 0.00 0.10 0.10 82 1005.8
20260506200318 69 175 0.0 3.0 0.00 0.10 0.10 82 1005.8
20260506195326 69 26 0.0 5.0 0.00 0.10 0.10 82 1005.3
20260506194819 69 226 0.0 5.0 0.00 0.10 0.10 83 1005.4
20260506194319 69 343 0.0 2.0 0.00 0.10 0.10 83 1005.1
20260506193819 69 342 0.0 2.0 0.00 0.10 0.10 83 1005.2
20260506193319 68 30 0.0 3.0 0.00 0.10 0.10 84 1005.2
20260506193314 68 22 0.0 3.0 0.00 0.10 0.10 84 1005.2
20260506192320 68 34 0.0 2.0 0.00 0.10 0.10 85 1005.5
20260506191819 67 200 0.0 1.0 0.00 0.10 0.10 85 1005.6
20260506191317 67 117 0.0 2.0 0.00 0.10 0.10 85 1005.8
20260506191046 67 149 0.0 3.0 0.00 0.10 0.10 86 1006.0
20260506190317 67 217 1.0 4.0 0.00 0.10 0.10 86 1006.0
20260506185818 67 211 0.0 4.0 0.00 0.10 0.10 86 1006.3
20260506185756 67 79 0.0 2.0 0.00 0.10 0.10 87 1006.2
20260506184818 66 288 0.0 2.0 0.00 0.10 0.10 86 1006.2
20260506184316 67 161 0.0 2.0 0.00 0.10 0.10 86 1006.1
20260506184038 67 167 0.0 4.0 0.00 0.10 0.10 86 1006.3
20260506183317 67 12 0.0 4.0 0.00 0.10 0.10 85 1006.4
20260506182816 67 162 0.0 4.0 0.00 0.10 0.10 85 1006.4
20260506182318 67 160 0.0 5.0 0.00 0.10 0.10 84 1006.4
20260506182037 67 176 1.0 5.0 0.00 0.10 0.10 84 1006.6
20260506181318 67 223 1.0 3.0 0.00 0.10 0.10 85 1006.9
20260506181038 67 302 0.0 3.0 0.00 0.10 0.10 85 1007.0
20260506180318 67 34 0.0 3.0 0.00 0.10 0.10 85 1006.9
20260506175817 67 229 0.0 4.0 0.00 0.10 0.10 85 1006.9
20260506175317 67 212 0.0 4.0 0.00 0.10 0.10 86 1007.1
20260506174818 67 172 0.0 7.0 0.00 0.10 0.10 86 1006.9
20260506174318 67 214 0.0 7.0 0.00 0.10 0.10 87 1006.9
20260506173816 67 214 0.0 4.0 0.00 0.10 0.10 87 1006.9
20260506173316 66 172 0.0 2.0 0.00 0.10 0.10 88 1006.8
20260506173038 66 61 0.0 1.0 0.00 0.10 0.10 89 1006.8
20260506172318 65 219 0.0 2.0 0.00 0.10 0.10 89 1006.9
20260506171817 65 158 0.0 2.0 0.00 0.10 0.10 88 1006.7
20260506171316 65 214 0.0 2.0 0.00 0.10 0.10 88 1006.7
20260506170816 65 192 0.0 2.0 0.01 0.10 0.10 88 1006.7
20260506170545 65 165 0.0 1.0 0.01 0.10 0.10 89 1007.0
20260506165815 65 167 0.0 2.0 0.01 0.10 0.10 88 1007.3
20260506165316 65 179 0.0 3.0 0.01 0.10 0.10 89 1007.3
20260506165035 65 322 1.0 5.0 0.01 0.10 0.10 88 1007.3
20260506164314 65 230 0.0 5.0 0.01 0.10 0.10 88 1007.6
20260506163810 65 75 0.0 2.0 0.01 0.10 0.10 89 1007.5
20260506163309 65 130 0.0 2.0 0.01 0.10 0.10 90 1007.3
20260506162808 64 175 0.0 1.0 0.01 0.10 0.10 90 1007.5
20260506162307 64 169 0.0 1.0 0.01 0.10 0.10 90 1007.2
20260506161805 64 347 0.0 1.0 0.01 0.10 0.10 91 1007.3
20260506161305 64 281 0.0 3.0 0.01 0.10 0.10 91 1007.2
20260506160759 63 30 0.0 3.0 0.00 0.09 0.09 90 1007.3
20260506160253 63 89 0.0 3.0 0.00 0.09 0.09 90 1007.4
20260506155747 63 165 0.0 3.0 0.00 0.09 0.09 91 1007.3
20260506155241 64 160 0.0 1.0 0.00 0.09 0.09 91 1007.1
20260506154734 64 153 0.0 1.0 0.00 0.09 0.09 91 1007.3
20260506154458 64 170 0.0 2.0 0.01 0.09 0.09 91 1007.4
20260506153928 63 152 0.0 1.0 0.04 0.09 0.09 91 1007.8
20260506153809 63 219 0.0 1.0 0.02 0.09 0.09 91 1007.6
20260506152712 63 161 0.0 1.0 0.05 0.09 0.09 92 1007.8
20260506152205 63 205 0.0 1.0 0.07 0.09 0.09 91 1007.8
20260506151659 63 214 0.0 1.0 0.08 0.09 0.09 91 1007.9
20260506151423 63 303 0.0 1.0 0.08 0.09 0.09 91 1008.0
20260506150647 63 151 0.0 1.0 0.08 0.09 0.09 91 1008.0
20260506150142 62 112 0.0 1.0 0.09 0.09 0.09 91 1008.0
20260506145635 62 112 0.0 1.0 0.09 0.09 0.09 91 1008.1
20260506145129 62 84 0.0 1.0 0.09 0.09 0.09 90 1008.2
20260506144623 62 80 0.0 1.0 0.09 0.09 0.09 89 1008.2
20260506144341 62 142 0.0 1.0 0.08 0.08 0.08 88 1008.3
20260506143610 63 141 0.0 1.0 0.06 0.06 0.06 87 1008.4
20260506143106 63 141 0.0 1.0 0.05 0.05 0.05 87 1008.5
20260506142559 64 194 0.0 1.0 0.04 0.04 0.04 86 1008.4
20260506142053 64 165 0.0 1.0 0.02 0.02 0.02 84 1008.3
20260506141547 64 167 0.0 1.0 0.01 0.01 0.01 83 1008.3
20260506141042 65 117 0.0 1.0 0.01 0.01 0.01 82 1008.2
20260506140752 65 162 0.0 3.0 0.01 0.01 0.01 82 1008.0
20260506140030 65 91 0.0 3.0 0.00 0.00 0.00 80 1008.1
20260506135524 66 148 0.0 3.0 0.00 0.00 0.00 78 1008.1
20260506135016 66 157 0.0 3.0 0.00 0.00 0.00 76 1008.2
20260506134511 66 209 0.0 3.0 0.00 0.00 0.00 74 1008.1
20260506134005 66 162 0.0 2.0 0.00 0.00 0.00 74 1008.1
20260506133726 66 206 0.0 2.0 0.00 0.00 0.00 74 1008.1
20260506132953 66 158 0.0 2.0 0.00 0.00 0.00 73 1008.0
20260506132447 66 155 1.0 4.0 0.00 0.00 0.00 73 1007.9
20260506131941 66 49 0.0 4.0 0.00 0.00 0.00 73 1007.9
20260506131435 66 134 0.0 4.0 0.00 0.00 0.00 74 1008.0
20260506130928 66 45 0.0 4.0 0.00 0.00 0.00 74 1007.9
20260506130423 66 219 0.0 2.0 0.00 0.00 0.00 75 1007.8
20260506125917 66 7 0.0 1.0 0.00 0.00 0.00 75 1007.9
20260506125411 66 160 0.0 2.0 0.00 0.00 0.00 75 1007.8
20260506124905 66 178 0.0 3.0 0.00 0.00 0.00 75 1007.8
20260506124359 66 219 0.0 3.0 0.00 0.00 0.00 75 1007.8
20260506124348 66 235 0.0 2.0 0.00 0.00 0.00 75 1007.9
20260506123347 66 62 0.0 2.0 0.00 0.00 0.00 74 1008.0
20260506122841 66 16 0.0 2.0 0.00 0.00 0.00 74 1007.8
20260506122335 66 226 0.0 2.0 0.00 0.00 0.00 74 1007.6
20260506121828 66 255 0.0 2.0 0.00 0.00 0.00 74 1007.7
20260506121541 66 165 0.0 3.0 0.00 0.00 0.00 74 1007.5
20260506120821 66 212 0.0 3.0 0.00 0.00 0.00 74 1007.5
20260506120320 66 217 1.0 4.0 0.00 0.00 0.00 74 1007.7
20260506115820 66 34 0.0 4.0 0.00 0.00 0.00 74 1007.7
20260506115320 65 126 0.0 1.0 0.00 0.00 0.00 75 1007.8
20260506114820 65 219 0.0 3.0 0.00 0.00 0.00 75 1007.8
20260506114321 65 110 0.0 3.0 0.00 0.00 0.00 75 1007.6
20260506114041 65 8 0.0 2.0 0.00 0.00 0.00 76 1007.6
20260506113537 65 155 0.0 4.0 0.00 0.00 0.00 76 1007.6
20260506113044 65 158 0.0 4.0 0.00 0.00 0.00 75 1007.6
20260506112321 65 67 0.0 1.0 0.00 0.00 0.00 76 1007.7
20260506112049 64 171 0.0 1.0 0.00 0.00 0.00 76 1007.6
20260506111319 64 205 0.0 1.0 0.00 0.00 0.00 76 1007.6
20260506110819 64 150 0.0 1.0 0.00 0.00 0.00 75 1007.5
20260506110319 64 173 0.0 1.0 0.00 0.00 0.00 75 1007.5
20260506105817 64 151 0.0 3.0 0.00 0.00 0.00 75 1007.6
20260506105320 64 39 0.0 3.0 0.00 0.00 0.00 75 1007.6
20260506104822 64 146 0.0 2.0 0.00 0.00 0.00 75 1007.7
20260506104807 64 157 0.0 2.0 0.00 0.00 0.00 75 1007.7
20260506103814 64 172 0.0 2.0 0.00 0.00 0.00 75 1007.8
20260506103537 64 153 0.0 1.0 0.00 0.00 0.00 75 1007.9
20260506102811 64 201 0.0 1.0 0.00 0.00 0.00 75 1008.0
20260506102314 64 223 0.0 1.0 0.00 0.00 0.00 75 1007.8
20260506101811 64 188 0.0 3.0 0.00 0.00 0.00 75 1007.7
20260506101308 64 242 0.0 3.0 0.00 0.00 0.00 75 1007.7
20260506100807 64 148 0.0 2.0 0.00 0.00 0.00 75 1007.6
20260506100309 64 177 0.0 1.0 0.00 0.00 0.00 75 1007.7
20260506095807 64 148 0.0 1.0 0.00 0.00 0.00 75 1007.7
20260506095307 64 143 0.0 2.0 0.00 0.00 0.00 75 1007.7
20260506094807 64 176 0.0 2.0 0.00 0.00 0.00 75 1007.5
20260506094305 64 197 0.0 2.0 0.00 0.00 0.00 75 1007.6
20260506093803 64 160 1.0 5.0 0.00 0.00 0.00 76 1007.5
20260506093306 64 353 0.0 5.0 0.00 0.00 0.00 76 1007.6
20260506092803 64 156 0.0 1.0 0.00 0.00 0.00 76 1007.5
20260506092256 64 224 0.0 3.0 0.00 0.00 0.00 76 1007.5
20260506092014 64 124 0.0 3.0 0.00 0.00 0.00 77 1007.5
20260506091255 64 71 0.0 1.0 0.00 0.00 0.00 77 1007.5
20260506091018 64 200 0.0 2.0 0.00 0.00 0.00 77 1007.6
20260506090254 64 188 0.0 2.0 0.00 0.00 0.00 77 1007.6
20260506085753 64 156 0.0 3.0 0.00 0.00 0.00 77 1007.6
20260506085517 64 155 0.0 3.0 0.00 0.00 0.00 77 1007.6
20260506084754 64 151 0.0 1.0 0.00 0.00 0.00 77 1007.7
20260506084253 64 349 0.0 1.0 0.00 0.00 0.00 77 1007.7
20260506084015 64 150 0.0 5.0 0.00 0.00 0.00 77 1007.9
20260506083254 64 154 0.0 5.0 0.00 0.00 0.00 77 1008.0
20260506082755 64 214 0.0 4.0 0.00 0.00 0.00 77 1007.9
20260506082254 64 160 0.0 1.0 0.00 0.00 0.00 77 1007.9
20260506081754 64 228 0.0 1.0 0.00 0.00 0.00 76 1007.9
20260506081516 65 167 0.0 0.0 0.00 0.00 0.00 76 1007.9
20260506080756 65 205 0.0 0.0 0.00 0.00 0.00 76 1007.9
20260506080254 65 163 0.0 2.0 0.00 0.00 0.00 76 1007.9
20260506073511 65 216 0.0 1.0 0.00 0.00 0.00 75 1008.1
20260506073014 65 103 0.0 2.0 0.00 0.00 0.00 75 1008.0
20260506072255 65 160 0.0 2.0 0.00 0.00 0.00 75 1008.0
20260506071755 65 150 0.0 2.0 0.00 0.00 0.00 74 1008.1
20260506071253 65 156 0.0 1.0 0.00 0.00 0.00 74 1008.1
20260506070755 65 169 0.0 1.0 0.00 0.00 0.00 74 1008.1
20260506070255 66 178 0.0 2.0 0.00 0.00 0.00 74 1008.0
20260506062244 66 179 0.0 2.0 0.00 0.00 0.00 74 1008.4
20260506061745 66 158 0.0 2.0 0.00 0.00 0.00 73 1008.3
20260506061241 67 161 0.0 1.0 0.00 0.00 0.00 73 1008.3
20260506061006 67 110 0.0 3.0 0.00 0.00 0.00 73 1008.3
20260506060238 67 215 0.0 3.0 0.00 0.00 0.00 72 1008.3
20260506051147 69 221 1.0 2.0 0.00 0.00 0.00 69 1008.6
20260506050912 69 186 1.0 2.0 0.00 0.00 0.00 68 1008.7
20260506050144 69 159 0.0 4.0 0.00 0.00 0.00 68 1008.9
20260506044640 69 217 0.0 3.0 0.00 0.00 0.00 68 1008.9
20260506044139 69 2 0.0 3.0 0.00 0.00 0.00 67 1009.0
20260506043640 69 217 1.0 3.0 0.00 0.00 0.00 67 1009.0
20260506043138 69 178 1.0 3.0 0.00 0.00 0.00 67 1009.1
20260506042638 69 192 1.0 3.0 0.00 0.00 0.00 66 1008.8
20260506042137 69 193 1.0 2.0 0.00 0.00 0.00 66 1009.0
20260506041854 70 160 0.0 2.0 0.00 0.00 0.00 65 1008.9
20260506041402 70 166 0.0 2.0 0.00 0.00 0.00 64 1008.9
20260506040634 70 127 1.0 4.0 0.00 0.00 0.00 64 1008.9
20260506040132 70 5 1.0 4.0 0.00 0.00 0.00 63 1008.9
20260506035630 70 146 0.0 2.0 0.00 0.00 0.00 63 1008.9
20260506035130 70 10 0.0 2.0 0.00 0.00 0.00 62 1008.8
20260506034632 71 150 0.0 2.0 0.00 0.00 0.00 61 1008.8
20260506034126 71 210 0.0 2.0 0.00 0.00 0.00 60 1008.8
20260506033627 71 157 0.0 2.0 0.00 0.00 0.00 60 1008.8
20260506033350 71 164 1.0 2.0 0.00 0.00 0.00 59 1008.9
20260506032625 71 150 1.0 4.0 0.00 0.00 0.00 59 1008.9
20260506032124 71 165 0.0 4.0 0.00 0.00 0.00 59 1008.9
20260506031624 71 152 0.0 3.0 0.00 0.00 0.00 58 1008.8
20260506031344 71 162 0.0 3.0 0.00 0.00 0.00 58 1008.8
20260506030849 72 146 0.0 3.0 0.00 0.00 0.00 57 1008.8
20260506030125 72 166 0.0 3.0 0.00 0.00 0.00 57 1008.7
20260506025621 72 153 0.0 2.0 0.00 0.00 0.00 57 1008.6
20260506025120 72 159 0.0 2.0 0.00 0.00 0.00 57 1008.8
20260506024620 72 160 0.0 2.0 0.00 0.00 0.00 56 1008.8
20260506024330 72 150 0.0 2.0 0.00 0.00 0.00 56 1008.8
20260506024216 72 164 0.0 2.0 0.00 0.00 0.00 56 1008.8
20260506023341 73 155 0.0 2.0 0.00 0.00 0.00 56 1008.9
20260506022620 73 188 0.0 1.0 0.00 0.00 0.00 55 1008.9
20260506022120 73 218 0.0 1.0 0.00 0.00 0.00 55 1008.9
20260506021844 73 234 0.0 0.0 0.00 0.00 0.00 55 1008.8
20260506021337 73 160 0.0 1.0 0.00 0.00 0.00 54 1008.9
20260506020616 73 160 0.0 1.0 0.00 0.00 0.00 54 1008.8
20260506020117 73 231 0.0 1.0 0.00 0.00 0.00 54 1008.8
20260506015615 73 148 0.0 1.0 0.00 0.00 0.00 54 1008.8
20260506015113 73 174 0.0 1.0 0.00 0.00 0.00 53 1008.7
20260506014613 74 214 0.0 2.0 0.00 0.00 0.00 53 1008.5
20260506014111 74 192 0.0 2.0 0.00 0.00 0.00 53 1008.5
20260506013612 74 155 0.0 2.0 0.00 0.00 0.00 52 1008.5
20260506013112 74 160 0.0 2.0 0.00 0.00 0.00 52 1008.4
20260506012608 74 161 0.0 2.0 0.00 0.00 0.00 52 1008.4
20260506012105 74 160 0.0 2.0 0.00 0.00 0.00 52 1008.3
20260506011607 74 156 0.0 2.0 0.00 0.00 0.00 51 1008.3
20260506011106 74 170 0.0 6.0 0.00 0.00 0.00 51 1008.2
20260506010605 74 156 0.0 6.0 0.00 0.00 0.00 51 1008.2
20260506010327 75 155 0.0 4.0 0.00 0.00 0.00 50 1008.2
20260506005604 75 159 0.0 4.0 0.00 0.00 0.00 50 1008.2
20260506005104 75 162 0.0 2.0 0.00 0.00 0.00 50 1008.1
20260506004604 75 160 0.0 1.0 0.00 0.00 0.00 50 1008.1
20260506004326 75 160 0.0 1.0 0.00 0.00 0.00 49 1008.0
20260506003601 75 168 0.0 3.0 0.00 0.00 0.00 49 1007.9
20260506003316 76 176 0.0 3.0 0.00 0.00 0.00 49 1007.9
20260506002548 76 185 0.0 2.0 0.00 0.00 0.00 48 1008.0
20260506002043 76 158 0.0 2.0 0.00 0.00 0.00 48 1007.9
20260506001537 76 141 0.0 1.0 0.00 0.00 0.00 48 1007.8
20260506001031 76 129 0.0 3.0 0.00 0.00 0.00 47 1007.8
20260506000525 77 147 0.0 3.0 0.00 0.00 0.00 47 1007.8
20260506000018 77 155 0.0 2.0 0.00 0.00 0.00 46 1007.7
20260505235512 77 160 0.0 2.0 0.00 0.00 0.00 46 1007.7
20260505235007 77 214 1.0 3.0 0.00 0.00 0.00 46 1007.7
20260505234501 78 229 0.0 3.0 0.00 0.00 0.00 45 1007.8
20260505233955 78 159 0.0 2.0 0.00 0.00 0.00 45 1007.6
20260505233449 78 46 0.0 2.0 0.00 0.00 0.00 44 1007.6
20260505232942 78 163 0.0 2.0 0.00 0.00 0.00 44 1007.6
20260505232437 78 153 0.0 2.0 0.00 0.00 0.00 44 1007.6
20260505231932 78 167 0.0 2.0 0.00 0.00 0.00 43 1007.7
20260505231425 79 226 0.0 2.0 0.00 0.00 0.00 43 1007.6
20260505231141 79 165 0.0 3.0 0.00 0.00 0.00 42 1007.6
20260505230413 79 329 1.0 6.0 0.00 0.00 0.00 41 1007.6
20260505230125 80 179 1.0 6.0 0.00 0.00 0.00 41 1007.6
20260505225624 80 250 1.0 4.0 0.00 0.00 0.00 41 1007.6
20260505225122 80 214 1.0 3.0 0.00 0.00 0.00 40 1007.5
20260505224622 81 168 1.0 3.0 0.00 0.00 0.00 40 1007.6
20260505223842 81 151 1.0 3.0 0.00 0.00 0.00 39 1007.7
20260505223336 82 160 1.0 3.0 0.00 0.00 0.00 38 1007.6
20260505222831 82 354 1.0 3.0 0.00 0.00 0.00 38 1007.7
20260505222326 83 46 0.0 5.0 0.00 0.00 0.00 37 1007.6
20260505221819 83 186 1.0 5.0 0.00 0.00 0.00 37 1007.6
20260505221313 83 194 1.0 4.0 0.00 0.00 0.00 36 1007.5
20260505220806 83 156 1.0 6.0 0.00 0.00 0.00 35 1007.5
20260505215754 84 270 1.0 4.0 0.00 0.00 0.00 33 1007.4
20260505215515 83 222 1.0 4.0 0.00 0.00 0.00 34 1007.5
20260505214743 83 236 1.0 4.0 0.00 0.00 0.00 32 1007.4
20260505214501 83 123 1.0 6.0 0.00 0.00 0.00 33 1007.3
20260505213955 83 215 1.0 6.0 0.00 0.00 0.00 31 1007.3
20260505213225 84 45 1.0 6.0 0.00 0.00 0.00 31 1007.4